| time (UTC) | temp C | wind direction | speed KPH | gust KPH | rain 1hr cm | rain 24hr cm | rain mn cm | humidity % | barometer mb |
| 20260504222044 | 18 | 85 | 6.4 | 27.4 | 0.00 | 0.00 | 0.00 | 37 | 1011.7 |
| 20260504221542 | 19 | 21 | 6.4 | 19.3 | 0.00 | 0.00 | 0.00 | 37 | 1011.5 |
| 20260504221038 | 19 | 109 | 4.8 | 16.1 | 0.00 | 0.00 | 0.00 | 36 | 1011.5 |
| 20260504220535 | 19 | 108 | 11.3 | 16.1 | 0.00 | 0.00 | 0.00 | 36 | 1011.6 |
| 20260504220032 | 19 | 123 | 12.9 | 17.7 | 0.00 | 0.00 | 0.00 | 36 | 1011.4 |
| 20260504215528 | 20 | 346 | 4.8 | 12.9 | 0.00 | 0.00 | 0.00 | 36 | 1011.4 |
| 20260504215026 | 18 | 23 | 8.0 | 11.3 | 0.00 | 0.00 | 0.00 | 37 | 1011.6 |
| 20260504214522 | 19 | 67 | 8.0 | 12.9 | 0.00 | 0.00 | 0.00 | 36 | 1011.7 |
| 20260504214018 | 19 | 35 | 4.8 | 16.1 | 0.00 | 0.00 | 0.00 | 38 | 1011.8 |
| 20260504213515 | 20 | 84 | 4.8 | 11.3 | 0.00 | 0.00 | 0.00 | 37 | 1011.7 |
| 20260504213012 | 19 | 97 | 12.9 | 19.3 | 0.00 | 0.00 | 0.00 | 36 | 1011.8 |
| 20260504212508 | 19 | 60 | 4.8 | 20.9 | 0.00 | 0.00 | 0.00 | 38 | 1011.6 |
| 20260504212005 | 19 | 90 | 3.2 | 20.9 | 0.00 | 0.00 | 0.00 | 38 | 1011.8 |
| 20260504211502 | 18 | 61 | 4.8 | 24.1 | 0.00 | 0.00 | 0.00 | 38 | 1011.8 |
| 20260504210959 | 19 | 43 | 6.4 | 12.9 | 0.00 | 0.00 | 0.00 | 38 | 1011.8 |
| 20260504210456 | 20 | 12 | 3.2 | 11.3 | 0.00 | 0.00 | 0.00 | 38 | 1011.8 |
| 20260504205953 | 20 | 92 | 9.7 | 16.1 | 0.00 | 0.00 | 0.00 | 35 | 1011.9 |
| 20260504205450 | 20 | 64 | 8.0 | 8.0 | 0.00 | 0.00 | 0.00 | 37 | 1011.8 |
| 20260504204949 | 19 | 62 | 17.7 | 17.7 | 0.00 | 0.00 | 0.00 | 36 | 1011.8 |
| 20260504204446 | 18 | 45 | 12.9 | 16.1 | 0.00 | 0.00 | 0.00 | 38 | 1011.7 |
| 20260504203945 | 18 | 76 | 8.0 | 35.4 | 0.00 | 0.00 | 0.00 | 38 | 1012.3 |
| 20260504203443 | 18 | 63 | 6.4 | 11.3 | 0.00 | 0.00 | 0.00 | 39 | 1011.9 |
| 20260504202938 | 18 | 35 | 1.6 | 11.3 | 0.00 | 0.00 | 0.00 | 38 | 1012.0 |
| 20260504202435 | 18 | 70 | 4.8 | 16.1 | 0.00 | 0.00 | 0.00 | 38 | 1012.3 |
| 20260504201932 | 19 | 53 | 6.4 | 8.0 | 0.00 | 0.00 | 0.00 | 39 | 1012.1 |
| 20260504201429 | 19 | 120 | 9.7 | 12.9 | 0.00 | 0.00 | 0.00 | 38 | 1012.3 |
| 20260504200927 | 18 | 123 | 6.4 | 24.1 | 0.00 | 0.00 | 0.00 | 38 | 1012.1 |
| 20260504200423 | 18 | 60 | 8.0 | 9.7 | 0.00 | 0.00 | 0.00 | 40 | 1012.1 |
| 20260504195920 | 17 | 14 | 4.8 | 16.1 | 0.00 | 0.00 | 0.00 | 38 | 1012.0 |
| 20260504195416 | 18 | 52 | 4.8 | 11.3 | 0.00 | 0.00 | 0.00 | 39 | 1012.1 |
| 20260504194913 | 18 | 20 | 1.6 | 12.9 | 0.00 | 0.00 | 0.00 | 37 | 1012.4 |
| 20260504194409 | 18 | 28 | 6.4 | 16.1 | 0.00 | 0.00 | 0.00 | 38 | 1012.1 |
| 20260504193905 | 18 | 98 | 11.3 | 25.7 | 0.00 | 0.00 | 0.00 | 38 | 1012.1 |
| 20260504193402 | 18 | 99 | 6.4 | 24.1 | 0.00 | 0.00 | 0.00 | 39 | 1012.4 |
| 20260504192901 | 18 | 342 | 3.2 | 19.3 | 0.00 | 0.00 | 0.00 | 40 | 1012.4 |
| 20260504192358 | 18 | 37 | 0.0 | 12.9 | 0.00 | 0.00 | 0.00 | 39 | 1012.1 |
| 20260504191856 | 18 | 4 | 6.4 | 16.1 | 0.00 | 0.00 | 0.00 | 40 | 1012.6 |
| 20260504191354 | 18 | 106 | 3.2 | 9.7 | 0.00 | 0.00 | 0.00 | 42 | 1012.7 |
| 20260504190849 | 17 | 82 | 4.8 | 14.5 | 0.00 | 0.00 | 0.00 | 40 | 1012.5 |
| 20260504190345 | 17 | 41 | 14.5 | 14.5 | 0.00 | 0.00 | 0.00 | 41 | 1012.6 |
| 20260504185842 | 18 | 42 | 9.7 | 11.3 | 0.00 | 0.00 | 0.00 | 39 | 1012.9 |
| 20260504185339 | 17 | 109 | 4.8 | 17.7 | 0.00 | 0.00 | 0.00 | 40 | 1013.0 |
| 20260504184835 | 17 | 10 | 4.8 | 17.7 | 0.00 | 0.00 | 0.00 | 40 | 1012.8 |
| 20260504184331 | 17 | 157 | 9.7 | 24.1 | 0.00 | 0.00 | 0.00 | 40 | 1012.7 |
| 20260504183827 | 17 | 82 | 4.8 | 20.9 | 0.00 | 0.00 | 0.00 | 39 | 1013.1 |
| 20260504183325 | 17 | 75 | 4.8 | 16.1 | 0.00 | 0.00 | 0.00 | 40 | 1012.9 |
| 20260504182822 | 17 | 115 | 16.1 | 16.1 | 0.00 | 0.00 | 0.00 | 39 | 1013.0 |
| 20260504182319 | 17 | 87 | 4.8 | 25.7 | 0.00 | 0.00 | 0.00 | 40 | 1012.9 |
| 20260504181816 | 17 | 69 | 14.5 | 29.0 | 0.00 | 0.00 | 0.00 | 40 | 1013.1 |
| 20260504181314 | 16 | 41 | 6.4 | 20.9 | 0.00 | 0.00 | 0.00 | 40 | 1013.0 |
| 20260504180813 | 17 | 62 | 8.0 | 16.1 | 0.00 | 0.00 | 0.00 | 40 | 1013.0 |
| 20260504180311 | 17 | 104 | 16.1 | 35.4 | 0.00 | 0.00 | 0.00 | 39 | 1013.1 |
| 20260504175808 | 16 | 100 | 14.5 | 22.5 | 0.00 | 0.00 | 0.00 | 41 | 1013.1 |
| 20260504175305 | 16 | 53 | 9.7 | 35.4 | 0.00 | 0.00 | 0.00 | 40 | 1013.1 |
| 20260504174803 | 17 | 82 | 8.0 | 16.1 | 0.00 | 0.00 | 0.00 | 40 | 1013.0 |
| 20260504174300 | 16 | 108 | 11.3 | 16.1 | 0.00 | 0.00 | 0.00 | 41 | 1013.2 |
| 20260504173757 | 16 | 82 | 11.3 | 25.7 | 0.00 | 0.00 | 0.00 | 41 | 1013.2 |
| 20260504173254 | 16 | 104 | 8.0 | 27.4 | 0.00 | 0.00 | 0.00 | 40 | 1013.5 |
| 20260504172750 | 16 | 56 | 4.8 | 22.5 | 0.00 | 0.00 | 0.00 | 41 | 1013.4 |
| 20260504172247 | 16 | 62 | 9.7 | 24.1 | 0.00 | 0.00 | 0.00 | 39 | 1013.4 |
| 20260504171743 | 16 | 14 | 11.3 | 22.5 | 0.00 | 0.00 | 0.00 | 42 | 1013.5 |
| 20260504171241 | 15 | 78 | 8.0 | 24.1 | 0.00 | 0.00 | 0.00 | 41 | 1013.4 |
| 20260504170738 | 15 | 84 | 9.7 | 22.5 | 0.00 | 0.00 | 0.00 | 40 | 1013.7 |
| 20260504170235 | 15 | 110 | 9.7 | 16.1 | 0.00 | 0.00 | 0.00 | 41 | 1013.4 |
| 20260504160153 | 13 | 90 | 14.5 | 53.1 | 0.00 | 0.00 | 0.00 | 43 | 1013.8 |
| 20260504151121 | 12 | 111 | 16.1 | 29.0 | 0.00 | 0.00 | 0.00 | 43 | 1013.9 |
| 20260504150618 | 13 | 79 | 25.7 | 38.6 | 0.00 | 0.00 | 0.00 | 43 | 1014.0 |
| 20260504150115 | 12 | 60 | 8.0 | 38.6 | 0.00 | 0.00 | 0.00 | 43 | 1013.7 |
| 20260504141044 | 12 | 136 | 17.7 | 40.2 | 0.00 | 0.00 | 0.00 | 44 | 1013.4 |
| 20260504140540 | 12 | 115 | 20.9 | 37.0 | 0.00 | 0.00 | 0.00 | 44 | 1013.2 |
| 20260504130505 | 11 | 105 | 1.6 | 33.8 | 0.00 | 0.00 | 0.00 | 46 | 1012.7 |
| 20260504110352 | 12 | 113 | 25.7 | 37.0 | 0.00 | 0.00 | 0.00 | 49 | 1011.8 |
| 20260504100309 | 8 | 102 | 8.0 | 8.0 | 0.00 | 0.00 | 0.00 | 67 | 1010.9 |
| 20260504081703 | 10 | 113 | 3.2 | 4.8 | 0.00 | 0.00 | 0.00 | 64 | 1010.9 |
| 20260504081159 | 10 | 145 | 0.0 | 3.2 | 0.00 | 0.00 | 0.00 | 63 | 1011.1 |
| 20260504080655 | 11 | 23 | 0.0 | 3.2 | 0.00 | 0.00 | 0.00 | 62 | 1011.1 |
| 20260504080152 | 11 | 23 | 0.0 | 4.8 | 0.00 | 0.00 | 0.00 | 62 | 1010.9 |
| 20260504070120 | 9 | 106 | 6.4 | 8.0 | 0.00 | 0.00 | 0.00 | 67 | 1010.8 |
| 20260504050508 | 13 | 106 | 8.0 | 12.9 | 0.00 | 0.00 | 0.00 | 52 | 1010.7 |
| 20260504050005 | 14 | 107 | 6.4 | 8.0 | 0.00 | 0.00 | 0.00 | 50 | 1010.7 |
| 20260504045501 | 14 | 118 | 8.0 | 9.7 | 0.00 | 0.00 | 0.00 | 51 | 1010.5 |
| 20260504044957 | 14 | 99 | 3.2 | 11.3 | 0.00 | 0.00 | 0.00 | 50 | 1010.6 |
| 20260504044455 | 13 | 106 | 4.8 | 9.7 | 0.00 | 0.00 | 0.00 | 54 | 1010.4 |
| 20260504043952 | 15 | 121 | 8.0 | 9.7 | 0.00 | 0.00 | 0.00 | 49 | 1010.6 |
| 20260504043449 | 14 | 122 | 16.1 | 16.1 | 0.00 | 0.00 | 0.00 | 50 | 1010.6 |
| 20260504042946 | 14 | 105 | 9.7 | 12.9 | 0.00 | 0.00 | 0.00 | 52 | 1010.5 |
| 20260504042443 | 14 | 106 | 6.4 | 11.3 | 0.00 | 0.00 | 0.00 | 51 | 1010.4 |
| 20260504041940 | 14 | 126 | 4.8 | 11.3 | 0.00 | 0.00 | 0.00 | 51 | 1010.5 |
| 20260504041436 | 15 | 86 | 8.0 | 11.3 | 0.00 | 0.00 | 0.00 | 49 | 1010.3 |
| 20260504040932 | 15 | 69 | 8.0 | 12.9 | 0.00 | 0.00 | 0.00 | 49 | 1010.4 |
| 20260504040430 | 16 | 82 | 8.0 | 12.9 | 0.00 | 0.00 | 0.00 | 46 | 1010.4 |
| 20260504035925 | 16 | 78 | 4.8 | 8.0 | 0.00 | 0.00 | 0.00 | 46 | 1010.3 |
| 20260504035423 | 15 | 113 | 6.4 | 8.0 | 0.00 | 0.00 | 0.00 | 48 | 1010.1 |
| 20260504034919 | 15 | 111 | 8.0 | 11.3 | 0.00 | 0.00 | 0.00 | 48 | 1010.0 |
| 20260504034417 | 15 | 78 | 4.8 | 9.7 | 0.00 | 0.00 | 0.00 | 48 | 1010.3 |
| 20260504033914 | 15 | 101 | 8.0 | 9.7 | 0.00 | 0.00 | 0.00 | 49 | 1010.0 |
| 20260504033411 | 15 | 112 | 4.8 | 9.7 | 0.00 | 0.00 | 0.00 | 48 | 1010.0 |
| 20260504032903 | 15 | 106 | 6.4 | 8.0 | 0.00 | 0.00 | 0.00 | 49 | 1009.9 |
| 20260504032400 | 16 | 112 | 4.8 | 8.0 | 0.00 | 0.00 | 0.00 | 47 | 1009.8 |
| 20260504031856 | 16 | 122 | 4.8 | 6.4 | 0.00 | 0.00 | 0.00 | 48 | 1009.8 |
| 20260504031353 | 16 | 105 | 4.8 | 6.4 | 0.00 | 0.00 | 0.00 | 46 | 1009.9 |
| 20260504030850 | 16 | 81 | 3.2 | 4.8 | 0.00 | 0.00 | 0.00 | 47 | 1009.8 |
| 20260504030347 | 17 | 106 | 4.8 | 6.4 | 0.00 | 0.00 | 0.00 | 47 | 1009.7 |
| 20260504025843 | 17 | 90 | 3.2 | 4.8 | 0.00 | 0.00 | 0.00 | 46 | 1009.7 |
| 20260504025340 | 17 | 100 | 4.8 | 6.4 | 0.00 | 0.00 | 0.00 | 44 | 1009.5 |
| 20260504024837 | 18 | 90 | 3.2 | 4.8 | 0.00 | 0.00 | 0.00 | 43 | 1009.6 |
| 20260504024333 | 18 | 111 | 4.8 | 4.8 | 0.00 | 0.00 | 0.00 | 42 | 1009.8 |
| 20260504023830 | 19 | 157 | 0.0 | 3.2 | 0.00 | 0.00 | 0.00 | 41 | 1009.6 |
| 20260504023327 | 20 | 111 | 0.0 | 3.2 | 0.00 | 0.00 | 0.00 | 38 | 1009.5 |
| 20260504022823 | 21 | 203 | 0.0 | 0.0 | 0.00 | 0.00 | 0.00 | 36 | 1009.5 |
| 20260504022320 | 22 | 195 | 0.0 | 3.2 | 0.00 | 0.00 | 0.00 | 35 | 1009.4 |
| 20260504021816 | 22 | 254 | 1.6 | 4.8 | 0.00 | 0.00 | 0.00 | 30 | 1009.3 |
| 20260504021314 | 22 | 270 | 3.2 | 6.4 | 0.00 | 0.00 | 0.00 | 31 | 1009.3 |
| 20260504020811 | 22 | 279 | 4.8 | 9.7 | 0.00 | 0.00 | 0.00 | 31 | 1009.5 |
| 20260504020308 | 22 | 305 | 3.2 | 9.7 | 0.00 | 0.00 | 0.00 | 31 | 1009.5 |
| 20260504015803 | 23 | 304 | 3.2 | 9.7 | 0.00 | 0.00 | 0.00 | 30 | 1009.5 |
| 20260504015300 | 23 | 270 | 4.8 | 11.3 | 0.00 | 0.00 | 0.00 | 30 | 1009.4 |
| 20260504014756 | 23 | 273 | 4.8 | 6.4 | 0.00 | 0.00 | 0.00 | 29 | 1009.3 |
| 20260504014252 | 23 | 289 | 4.8 | 6.4 | 0.00 | 0.00 | 0.00 | 29 | 1009.4 |
| 20260504013750 | 23 | 270 | 3.2 | 8.0 | 0.00 | 0.00 | 0.00 | 29 | 1009.4 |
| 20260504013248 | 24 | 308 | 4.8 | 6.4 | 0.00 | 0.00 | 0.00 | 28 | 1009.5 |
| 20260504012743 | 24 | 285 | 8.0 | 8.0 | 0.00 | 0.00 | 0.00 | 27 | 1009.4 |
| 20260504012242 | 24 | 248 | 0.0 | 4.8 | 0.00 | 0.00 | 0.00 | 28 | 1009.6 |
| 20260504011739 | 24 | 242 | 8.0 | 8.0 | 0.00 | 0.00 | 0.00 | 28 | 1009.4 |
| 20260504011235 | 24 | 286 | 8.0 | 8.0 | 0.00 | 0.00 | 0.00 | 26 | 1009.4 |
| 20260504010731 | 24 | 330 | 4.8 | 8.0 | 0.00 | 0.00 | 0.00 | 28 | 1009.5 |
| 20260504010227 | 24 | 310 | 6.4 | 8.0 | 0.00 | 0.00 | 0.00 | 28 | 1009.6 |
| 20260504005724 | 24 | 282 | 4.8 | 9.7 | 0.00 | 0.00 | 0.00 | 27 | 1009.7 |
| 20260504005221 | 25 | 217 | 3.2 | 4.8 | 0.00 | 0.00 | 0.00 | 26 | 1009.9 |
| 20260504004719 | 25 | 287 | 4.8 | 6.4 | 0.00 | 0.00 | 0.00 | 26 | 1009.7 |
| 20260504004215 | 24 | 329 | 6.4 | 8.0 | 0.00 | 0.00 | 0.00 | 27 | 1009.6 |
| 20260504003712 | 25 | 267 | 4.8 | 8.0 | 0.00 | 0.00 | 0.00 | 27 | 1009.9 |
| 20260504003209 | 24 | 90 | 0.0 | 4.8 | 0.00 | 0.00 | 0.00 | 25 | 1009.9 |
| 20260504002706 | 24 | 3 | 4.8 | 8.0 | 0.00 | 0.00 | 0.00 | 26 | 1010.0 |
| 20260504002203 | 25 | 324 | 3.2 | 4.8 | 0.00 | 0.00 | 0.00 | 25 | 1010.3 |
| 20260504001701 | 24 | 296 | 9.7 | 9.7 | 0.00 | 0.00 | 0.00 | 25 | 1009.9 |
| 20260504001157 | 24 | 288 | 4.8 | 9.7 | 0.00 | 0.00 | 0.00 | 28 | 1009.9 |
| 20260504000654 | 25 | 5 | 8.0 | 8.0 | 0.00 | 0.00 | 0.00 | 27 | 1010.3 |
| 20260504000151 | 25 | 28 | 4.8 | 12.9 | 0.00 | 0.00 | 0.00 | 25 | 1010.1 |
| 20260503235649 | 25 | 15 | 3.2 | 6.4 | 0.00 | 0.00 | 0.00 | 27 | 1010.1 |
| 20260503235145 | 25 | 231 | 4.8 | 4.8 | 0.00 | 0.00 | 0.00 | 27 | 1010.1 |
| 20260503234644 | 24 | 307 | 0.0 | 8.0 | 0.00 | 0.00 | 0.00 | 26 | 1010.5 |
| 20260503234142 | 25 | 270 | 0.0 | 4.8 | 0.00 | 0.00 | 0.00 | 25 | 1010.1 |
| 20260503233638 | 25 | 10 | 4.8 | 4.8 | 0.00 | 0.00 | 0.00 | 28 | 1010.4 |
| 20260503233134 | 24 | 273 | 6.4 | 16.1 | 0.00 | 0.00 | 0.00 | 26 | 1010.5 |
| 20260503232631 | 25 | 342 | 4.8 | 9.7 | 0.00 | 0.00 | 0.00 | 28 | 1010.5 |
| 20260503232128 | 24 | 325 | 4.8 | 6.4 | 0.00 | 0.00 | 0.00 | 27 | 1010.7 |
| 20260503231626 | 25 | 325 | 6.4 | 14.5 | 0.00 | 0.00 | 0.00 | 29 | 1010.6 |
| 20260503231122 | 24 | 282 | 6.4 | 16.1 | 0.00 | 0.00 | 0.00 | 29 | 1010.6 |
| 20260503230619 | 25 | 303 | 4.8 | 6.4 | 0.00 | 0.00 | 0.00 | 28 | 1010.7 |
| 20260503230117 | 24 | 75 | 3.2 | 8.0 | 0.00 | 0.00 | 0.00 | 28 | 1011.0 |
| 20260503225614 | 25 | 323 | 6.4 | 8.0 | 0.00 | 0.00 | 0.00 | 31 | 1010.9 |
| 20260503225113 | 25 | 0 | 1.6 | 3.2 | 0.00 | 0.00 | 0.00 | 30 | 1011.0 |
| 20260503224611 | 25 | 257 | 8.0 | 9.7 | 0.00 | 0.00 | 0.00 | 29 | 1011.1 |
| 20260503224109 | 24 | 263 | 6.4 | 8.0 | 0.00 | 0.00 | 0.00 | 30 | 1011.1 |
| 20260503223607 | 23 | 285 | 4.8 | 11.3 | 0.00 | 0.00 | 0.00 | 31 | 1011.0 |
| 20260503223102 | 23 | 58 | 4.8 | 11.3 | 0.00 | 0.00 | 0.00 | 30 | 1011.3 |
| 20260503222600 | 24 | 311 | 4.8 | 4.8 | 0.00 | 0.00 | 0.00 | 29 | 1011.3 |